Temp
5 4 4 4 4 4 4 4 4 4 3 3 4 4 4 4 4 4 4 4 3 3 3 3 3 3 3 3 3 3 3 3 3 3 3 3 3 3 3 3 3 3
4 4 4 4 4 4 4 4 4 3 3 3 3 4 4 4 4 4 4 4 3 3 3 3 3 3 3 3 3 3 3 3 3 2 2 3 2 2 2 3 3 3
4 4 4 4 4 5 4 4 4 3 3 3 3 3 3 3 4 4 4 4 4 3 3 3 3 3 3 3 3 3 3 3 3 2 3 3 3 2 2 2 2 2
4 4 4 4 4 4 4 4 3 3 3 3 3 3 3 3 3 4 4 4 4 3 3 3 3 3 3 3 3 3 3 3 3 3 3 3 3 3 2 2 2 2
4 4 4 4 4 4 4 4 4 3 3 3 3 3 3 3 3 3 4 4 3 3 3 3 3 3 3 3 3 3 3 3 3 2 2 3 3 3 3 3 2 2
4 4 4 4 4 4 4 4 4 4 3 3 3 3 3 3 3 3 4 4 3 3 3 3 3 2 2 2 2 2 2 2 2 2 2 2 2 2 2 3 2 2
4 4 4 4 4 3 4 4 4 4 3 3 3 3 3 3 3 3 3 4 3 3 3 3 3 2 2 2 2 2 3 2 2 2 2 2 2 2 2 2 2 2
4 4 4 3 3 3 3 4 4 3 3 3 3 3 3 3 3 3 3 3 3 3 3 3 3 2 2 2 2 2 2 2 2 2 2 2 2 2 2 2 2 2
4 4 4 3 3 3 3 3 3 3 3 3 3 3 3 3 3 3 3 3 3 3 3 3 3 2 2 2 2 2 2 2 2 2 2 2 2 2 2 1 2 2
4 4 4 3 3 3 3 3 3 3 3 3 3 2 3 3 3 3 3 3 3 3 3 3 2 2 2 2 2 2 2 2 2 2 2 2 2 2 2 1 1 1
5 4 4 3 3 3 3 3 3 3 3 3 3 2 3 3 3 3 3 3 3 3 3 2 2 2 2 2 2 2 2 2 2 2 2 2 2 2 2 2 1 1
4 4 4 3 3 3 3 3 2 2 3 3 2 2 3 3 3 3 3 3 3 3 3 3 2 2 2 2 2 2 2 2 2 2 1 1 1 1 2 2 2 2
4 4 3 3 3 3 3 2 2 2 2 2 2 2 2 2 2 2 3 3 3 3 3 3 3 3 3 2 2 2 2 2 2 2 2 1 1 1 1 2 1 2
3 3 3 3 3 3 2 2 2 2 2 2 2 2 2 2 2 2 2 3 3 3 3 3 3 3 3 2 2 2 2 2 2 2 2 2 1 1 2 2 2 2
3 3 3 3 2 2 2 2 2 2 2 2 2 2 2 2 2 2 2 2 3 3 3 2 2 2 2 2 2 2 2 2 2 2 2 1 1 2 2 1 1 1
3 3 3 2 2 2 2 2 2 2 2 2 2 2 2 2 2 2 2 2 2 3 3 2 2 2 2 2 2 2 2 2 2 1 1 1 1 1 1 1 1 1
2 2 2 2 2 2 2 2 2 2 2 2 2 2 2 1 1 2 2 2 2 2 2 2 2 2 2 2 2 2 2 2 1 1 1 1 1 1 1 1 1 1
2 1 2 2 2 2 2 2 2 2 2 2 2 2 2 2 2 2 2 1 1 2 2 2 2 2 2 2 2 2 2 2 2 1 1 1 1 1 1 1 0 1
1 1 1 2 2 2 2 2 2 2 2 2 2 2 2 2 2 2 1 1 1 1 2 2 2 2 2 2 2 2 2 1 1 1 1 1 1 1 1 1 1 1
1 1 1 1 1 1 1 1 1 1 1 1 1 1 2 2 1 1 1 1 1 1 1 2 1 1 1 2 2 2 2 1 1 1 1 1 1 1 1 1 0 0
1 1 1 1 1 1 1 1 1 1 1 1 1 1 1 1 1 1 1 1 0 1 1 1 1 1 1 1 1 1 1 1 1 1 1 1 1 1 0 0 0 0
0 0 0 0 0 1 0 0 0 1 1 1 1 1 1 1 1 1 0 0 0 0 0 0 0 0 1 1 1 1 1 1 1 1 1 1 0 0 0 0 -0 -0
-0 -0 0 0 0 -0 -0 -0 -0 0 0 0 1 1 1 1 1 0 -0 -0 -0 -0 -0 -0 -0 -0 0 0 1 1 1 1 0 0 0 0 0 -0 -0 0 -0 -0
-0 -0 -0 -0 -0 -1 -1 -1 -1 -0 -0 -0 0 0 0 0 0 0 -0 -0 -0 -0 -0 -0 -0 -0 -0 -0 0 0 0 0 0 0 0 0 -0 -0 -0 -0 -0 -0
-0 -0 -0 -0 -0 -1 -1 -1 -1 -1 -1 -0 -0 -0 -0 -0 -0 -0 -0 -0 -0 -0 -1 -1 -1 -1 -1 -1 -0 -0 -0 -0 -0 0 0 -0 -0 -0 -0 -0 -0 -0
-1 -1 -1 -1 -1 -1 -1 -1 -1 -1 -1 -1 -0 -0 -0 -1 -1 -1 -0 -0 -0 -0 -1 -1 -1 -1 -1 -1 -1 -1 -1 -1 -1 -0 -0 -0 -1 -1 -1 -0 -0 -0
Height
3122 3123 3125 3126 3127 3128 3129 3130 3132 3134 3135 3136 3137 3138 3139 3140 3140 3140 3140 3141 3141 3142 3143 3144 3144 3144 3144 3145 3145 3146 3146 3146 3147 3150 3152 3152 3153 3155 3156 3156 3156 3157
3121 3123 3124 3126 3128 3129 3129 3131 3132 3134 3135 3136 3137 3138 3139 3139 3140 3140 3140 3140 3140 3141 3142 3143 3143 3143 3142 3143 3144 3145 3146 3146 3146 3149 3152 3151 3152 3154 3156 3156 3156 3156
3121 3123 3124 3126 3128 3129 3130 3131 3132 3134 3135 3136 3137 3137 3138 3138 3139 3139 3139 3139 3140 3140 3141 3141 3142 3142 3142 3142 3143 3144 3145 3146 3146 3148 3151 3152 3152 3152 3154 3155 3155 3155
3120 3123 3125 3127 3128 3129 3130 3131 3132 3133 3134 3135 3136 3137 3137 3137 3138 3138 3138 3138 3139 3139 3140 3140 3141 3142 3142 3143 3143 3144 3144 3144 3145 3147 3150 3152 3152 3151 3152 3153 3154 3154
3118 3122 3125 3127 3127 3128 3129 3130 3131 3133 3134 3135 3136 3136 3136 3136 3136 3137 3137 3137 3137 3138 3139 3139 3140 3141 3142 3143 3143 3144 3144 3143 3143 3146 3147 3150 3152 3152 3151 3152 3152 3154
3116 3120 3124 3126 3127 3128 3128 3129 3131 3132 3134 3135 3135 3136 3136 3135 3135 3135 3136 3136 3136 3137 3138 3138 3139 3140 3141 3142 3143 3143 3144 3143 3144 3145 3146 3146 3148 3151 3151 3151 3152 3153
3115 3118 3122 3125 3126 3127 3128 3129 3131 3132 3133 3134 3135 3135 3135 3135 3134 3134 3134 3135 3135 3136 3136 3137 3138 3139 3140 3141 3142 3143 3143 3144 3144 3145 3146 3146 3146 3148 3150 3150 3151 3152
3114 3116 3120 3123 3125 3126 3127 3129 3130 3131 3132 3133 3134 3134 3134 3134 3133 3133 3133 3133 3134 3134 3135 3136 3137 3138 3139 3140 3141 3142 3142 3143 3144 3145 3146 3146 3147 3148 3148 3149 3150 3151
3110 3114 3118 3122 3124 3125 3126 3128 3129 3130 3131 3132 3133 3133 3133 3133 3132 3132 3132 3133 3133 3134 3134 3135 3136 3137 3138 3138 3139 3140 3141 3142 3143 3144 3145 3146 3147 3148 3148 3148 3149 3150
3107 3111 3116 3119 3122 3124 3125 3126 3128 3129 3130 3131 3131 3132 3132 3132 3132 3131 3132 3132 3132 3133 3133 3134 3135 3135 3136 3137 3138 3138 3139 3140 3142 3143 3144 3145 3146 3147 3147 3148 3148 3150
3105 3109 3113 3116 3119 3122 3123 3125 3126 3127 3128 3129 3130 3131 3131 3131 3131 3131 3131 3131 3131 3132 3132 3133 3134 3134 3135 3136 3137 3137 3138 3139 3140 3142 3143 3144 3145 3145 3146 3147 3148 3149
3104 3106 3110 3114 3117 3119 3121 3123 3124 3125 3126 3127 3128 3129 3129 3129 3129 3129 3129 3130 3130 3131 3131 3131 3132 3133 3133 3134 3135 3136 3137 3138 3139 3140 3141 3143 3144 3144 3144 3146 3147 3148
3103 3104 3107 3110 3113 3117 3119 3121 3122 3123 3124 3125 3126 3127 3128 3128 3128 3128 3128 3129 3129 3129 3130 3130 3131 3132 3132 3133 3134 3135 3136 3136 3138 3139 3140 3142 3143 3143 3144 3145 3146 3147
3101 3103 3105 3107 3110 3114 3117 3118 3120 3121 3122 3123 3124 3125 3126 3126 3127 3127 3127 3127 3127 3128 3129 3130 3131 3131 3132 3133 3133 3134 3135 3136 3137 3138 3139 3141 3141 3141 3143 3144 3144 3145
3098 3100 3102 3105 3108 3111 3113 3115 3118 3119 3120 3121 3123 3123 3124 3124 3125 3125 3125 3126 3127 3128 3128 3129 3129 3130 3131 3132 3133 3134 3135 3135 3136 3137 3138 3139 3140 3141 3142 3143 3143 3145
3094 3096 3098 3101 3105 3108 3110 3113 3115 3116 3117 3119 3121 3122 3122 3122 3123 3123 3124 3125 3126 3127 3127 3127 3128 3129 3130 3130 3131 3132 3134 3135 3135 3136 3137 3138 3139 3140 3141 3142 3142 3143
3091 3094 3096 3097 3100 3104 3107 3110 3112 3114 3116 3118 3119 3120 3120 3120 3121 3122 3122 3124 3125 3125 3125 3125 3126 3127 3128 3129 3130 3131 3132 3133 3134 3135 3136 3137 3138 3139 3140 3141 3142 3142
3089 3091 3094 3096 3097 3101 3104 3107 3110 3112 3114 3116 3116 3117 3118 3118 3119 3120 3121 3122 3122 3123 3124 3124 3124 3125 3126 3127 3128 3130 3131 3132 3133 3134 3135 3136 3137 3138 3138 3140 3140 3141
3087 3090 3093 3095 3096 3099 3103 3106 3108 3110 3112 3113 3114 3115 3115 3116 3117 3119 3119 3119 3120 3121 3122 3122 3123 3123 3124 3125 3127 3128 3129 3130 3131 3132 3133 3134 3135 3136 3137 3138 3139 3139
3084 3087 3090 3093 3095 3098 3102 3104 3106 3108 3109 3110 3111 3112 3113 3114 3116 3116 3116 3116 3117 3119 3120 3120 3121 3122 3122 3124 3125 3126 3127 3128 3129 3131 3132 3132 3134 3135 3136 3137 3137 3137
3082 3084 3087 3091 3094 3097 3099 3102 3104 3105 3106 3107 3108 3109 3111 3113 3114 3114 3114 3114 3115 3116 3118 3119 3119 3120 3121 3122 3123 3125 3126 3127 3128 3129 3130 3131 3132 3134 3135 3135 3135 3135
3080 3082 3085 3089 3092 3094 3097 3099 3101 3102 3103 3104 3105 3107 3109 3110 3112 3112 3112 3112 3113 3115 3116 3117 3118 3119 3120 3121 3122 3123 3124 3125 3127 3127 3128 3130 3131 3132 3132 3133 3133 3133
3077 3080 3083 3086 3088 3091 3094 3095 3097 3099 3100 3101 3103 3105 3106 3108 3109 3110 3111 3111 3112 3113 3114 3115 3116 3117 3118 3119 3121 3122 3123 3124 3124 3125 3126 3128 3129 3129 3129 3131 3132 3132
3075 3077 3080 3082 3085 3088 3090 3092 3093 3095 3096 3097 3099 3102 3103 3105 3106 3108 3108 3109 3110 3111 3112 3113 3114 3116 3117 3118 3119 3120 3121 3121 3122 3123 3124 3126 3126 3126 3127 3129 3130 3130
3074 3076 3078 3080 3082 3084 3086 3088 3090 3091 3092 3094 3096 3098 3100 3102 3104 3105 3106 3107 3108 3109 3110 3111 3112 3114 3115 3116 3117 3117 3118 3120 3121 3122 3124 3125 3125 3125 3125 3126 3127 3128
3072 3074 3076 3077 3079 3081 3083 3084 3085 3087 3089 3091 3093 3095 3097 3099 3100 3102 3103 3105 3106 3107 3108 3109 3111 3112 3113 3114 3115 3116 3117 3118 3119 3120 3122 3123 3123 3122 3122 3122 3124 3125
Wind_Speed
14 15 16 16 15 15 13 11 9 8 7 7 5 5 4 4 5 7 8 9 9 10 10 10 10 10 10 9 9 8 6 7 7 6 7 8 9 10 11 11 12 12
16 17 18 18 18 17 14 12 10 9 8 6 5 4 3 4 5 7 8 9 10 10 10 10 10 11 10 10 9 7 7 7 6 5 7 7 7 9 11 11 11 12
17 19 20 20 19 16 14 12 12 10 8 6 4 3 3 3 5 6 7 9 10 10 11 11 11 11 10 8 7 5 6 8 7 6 7 8 8 9 10 10 10 11
19 21 21 20 18 15 14 14 12 10 8 5 4 3 3 4 5 6 7 8 9 10 11 11 11 11 10 8 7 6 7 7 6 6 6 8 9 9 9 9 10 11
19 22 21 19 17 16 15 14 12 10 8 5 5 4 4 4 5 6 6 7 8 9 10 10 10 11 10 9 9 8 7 7 4 4 4 6 11 11 9 9 9 10
19 22 21 19 19 17 16 15 13 11 9 8 7 5 4 4 4 5 5 6 7 8 8 9 10 11 11 10 9 8 8 7 5 4 4 4 8 10 10 9 8 9
20 22 22 20 20 18 17 16 14 12 11 9 8 5 3 3 3 4 5 6 7 8 8 8 8 10 10 10 9 8 8 7 6 6 5 5 5 6 7 8 7 8
20 22 23 22 20 19 18 17 16 15 13 10 9 5 2 2 2 4 5 6 7 8 8 8 8 8 9 9 9 8 8 7 6 6 6 6 5 5 6 6 6 7
21 22 23 23 22 21 20 19 17 16 14 11 9 6 3 2 2 3 4 5 6 7 7 8 8 8 9 9 9 9 8 7 6 6 7 6 7 6 5 5 5 6
20 22 24 25 25 23 21 21 19 17 15 13 10 7 4 3 2 3 4 4 5 6 7 7 8 9 10 10 9 9 9 8 8 8 7 7 7 6 6 6 7 7
21 23 27 28 27 25 23 21 20 19 16 14 12 9 6 4 2 2 3 4 5 6 7 8 9 9 10 10 10 10 9 9 9 8 7 7 7 7 9 9 8 8
25 28 30 30 29 28 25 22 22 20 17 15 13 10 7 6 4 2 3 3 4 6 8 10 10 10 11 10 12 12 10 11 10 9 10 8 6 8 9 8 8 9
27 30 32 32 31 29 26 24 23 20 18 16 14 11 9 8 5 4 3 3 5 7 8 9 10 10 10 10 11 12 11 11 10 10 12 10 7 9 9 6 8 10
30 32 33 32 31 28 27 26 23 21 20 18 16 13 11 9 7 6 5 4 6 7 6 6 8 9 9 9 10 10 9 9 8 11 13 11 10 11 9 7 8 10
33 35 34 32 31 29 28 27 25 23 22 19 16 14 12 10 8 8 7 7 7 7 5 5 7 8 9 9 10 10 9 8 9 10 11 11 12 11 8 8 9 10
34 34 35 34 33 31 29 27 26 26 24 20 17 16 13 11 10 10 10 9 7 7 7 6 7 8 9 10 11 12 12 10 9 9 9 10 10 10 10 10 11 11
33 34 36 35 33 31 30 29 28 28 24 20 18 17 15 14 14 13 13 12 8 8 9 9 8 9 9 10 11 13 14 14 11 9 9 9 9 10 11 10 11 12
34 36 36 33 31 31 31 30 29 27 23 20 20 19 18 18 18 16 16 15 12 11 11 10 9 9 10 11 11 12 15 15 14 13 12 12 11 10 11 11 11 13
36 35 34 32 31 31 31 29 27 25 23 22 22 21 21 21 19 17 17 17 15 13 12 11 11 10 10 11 11 12 13 14 15 15 14 15 15 13 13 11 11 13
34 34 34 32 31 30 29 28 28 26 25 24 23 23 22 21 18 17 18 18 16 15 13 12 11 11 11 12 12 13 13 14 14 14 14 15 16 15 13 11 10 12
34 35 34 32 31 31 31 29 28 27 27 26 25 25 23 21 19 17 16 17 17 16 14 13 12 12 12 12 13 13 13 13 13 13 13 13 13 13 13 13 13 14
37 36 35 34 34 34 33 31 30 29 29 29 28 26 24 22 20 17 15 15 17 15 12 12 12 12 13 13 13 13 13 13 13 13 13 13 12 13 15 16 17 17
37 36 36 38 38 36 34 32 32 31 31 31 30 27 25 24 22 18 14 15 16 14 12 11 11 12 13 13 14 14 14 14 14 15 15 14 14 16 17 18 18 20
36 35 36 38 37 36 36 34 33 34 33 32 31 28 26 25 22 20 16 16 17 15 12 11 12 13 14 14 15 15 15 16 16 17 16 16 17 18 18 18 19 20
30 29 30 32 32 33 33 32 32 33 33 32 31 30 28 25 21 19 17 17 18 16 13 12 13 13 14 15 16 16 16 17 17 17 16 16 18 19 20 20 21 22
26 27 27 28 31 32 32 30 30 32 33 33 31 30 27 23 19 17 17 18 19 17 14 14 14 14 14 15 16 17 18 18 19 19 19 19 20 22 24 26 26 25
Wind_Direction
202 199 193 193 194 187 178 176 174 169 167 173 180 186 201 216 224 226 225 225 222 214 214 210 208 216 218 218 218 205 203 233 230 192 183 197 194 184 192 198 197 201
203 197 193 195 197 192 183 180 181 177 176 180 184 192 218 234 238 242 241 241 236 226 221 214 210 217 219 220 224 204 192 214 225 204 181 183 194 191 193 198 198 207
203 197 195 197 199 195 189 188 187 184 185 188 191 207 237 248 247 246 248 250 246 235 227 222 216 218 220 223 227 214 207 213 211 205 182 169 189 205 199 193 197 209
205 199 198 198 200 197 194 194 193 191 194 197 215 245 260 261 251 244 246 250 247 235 227 226 222 221 220 217 216 214 222 224 204 191 185 165 168 193 202 190 191 206
209 203 201 200 200 198 196 199 198 197 203 214 233 251 267 263 251 242 240 242 242 230 223 224 223 221 217 211 214 213 217 229 215 187 203 175 157 168 191 192 191 203
214 208 204 200 200 200 199 202 203 204 212 222 231 242 258 256 245 240 234 228 229 225 220 222 222 222 219 212 213 213 210 218 217 200 211 202 166 160 176 190 191 194
214 212 209 204 203 203 203 205 206 209 216 223 229 236 256 260 237 228 224 218 219 219 219 223 221 220 222 219 215 216 217 213 208 203 195 191 183 165 169 180 185 192
214 214 211 208 206 206 207 208 209 214 219 224 229 231 251 271 239 224 218 213 212 213 217 221 221 217 216 217 215 216 224 220 207 203 189 173 174 174 174 176 186 201
216 215 210 209 210 211 212 211 212 218 222 225 230 233 250 265 236 226 220 212 208 209 213 215 218 215 210 211 215 215 219 217 201 191 186 181 181 180 178 182 196 205
225 220 212 212 215 215 215 213 215 223 225 227 231 233 246 262 246 227 220 214 210 206 208 211 211 211 208 207 212 216 216 213 203 191 188 193 196 194 195 198 202 198
246 236 218 215 217 217 216 215 218 226 228 228 231 232 241 252 257 244 219 216 216 207 205 208 210 212 212 207 207 212 215 214 206 195 194 200 207 217 214 206 207 202
252 240 221 215 216 217 217 217 220 226 228 229 231 232 236 244 256 264 234 219 223 220 212 209 210 212 211 209 210 209 212 216 209 200 205 205 209 227 223 207 209 210
242 230 217 215 216 217 218 217 220 224 226 231 234 234 237 244 256 269 258 233 229 232 228 220 221 219 212 213 216 212 211 214 207 204 210 203 201 225 231 226 219 210
234 219 214 216 215 216 216 217 221 225 227 232 235 235 240 243 252 268 273 255 242 245 248 239 237 235 226 224 225 220 215 210 197 199 207 206 211 227 231 232 225 209
229 215 212 215 214 214 217 218 222 226 229 233 234 237 243 246 253 266 272 267 261 261 260 242 238 239 234 232 230 223 218 213 199 195 199 202 213 225 223 217 219 213
224 218 211 211 212 214 217 218 221 225 229 231 234 239 243 246 252 262 272 280 282 272 258 238 231 233 231 231 228 221 218 220 215 204 198 199 206 213 213 213 215 213
226 228 217 209 208 210 215 217 220 226 230 231 235 240 242 246 252 263 277 287 284 266 254 242 234 233 232 230 226 220 218 220 222 220 214 212 212 214 216 217 219 220
231 230 217 209 207 209 214 219 221 226 229 230 235 241 246 252 258 269 280 282 272 257 250 243 236 233 233 231 226 221 221 223 227 227 223 223 224 227 231 229 229 234
226 220 210 209 212 214 216 220 223 225 228 232 237 244 250 257 267 278 281 274 261 248 245 242 234 228 230 230 224 220 220 223 227 224 221 224 226 229 239 243 242 245
213 208 208 213 216 218 220 222 224 226 230 235 241 245 251 259 271 279 278 268 252 239 239 241 233 225 227 227 223 220 217 220 226 224 223 228 231 232 241 250 252 252
213 208 210 214 216 218 221 223 225 229 232 236 241 246 252 262 268 271 272 262 242 229 234 242 236 228 225 223 221 220 218 219 223 226 227 230 233 235 237 241 244 246
219 214 211 212 214 217 221 224 227 230 233 238 244 249 255 261 262 260 261 250 232 224 233 243 241 234 227 223 221 220 219 219 221 224 227 228 230 233 233 233 237 241
219 217 214 214 214 215 219 224 226 229 233 239 245 249 254 259 256 252 248 235 224 224 230 237 242 239 232 229 226 224 223 221 221 223 224 226 230 234 236 235 236 241
217 212 210 212 213 213 216 221 224 229 234 238 242 246 249 252 251 247 240 227 220 223 227 234 241 239 234 233 231 230 230 228 229 228 226 227 232 238 241 241 242 246
210 203 201 206 209 209 211 213 217 225 230 234 239 243 245 247 246 239 232 223 219 221 225 235 242 241 237 235 234 235 237 239 241 242 240 239 243 247 250 250 250 251
189 187 187 194 199 202 204 204 209 218 226 233 239 240 236 234 231 225 223 221 219 219 226 234 240 244 246 243 240 239 240 242 246 248 247 246 247 251 254 255 255 256